Location: Norton
(51.3000°N, 0.8167°E)
Time: 18:01:48
(UTC+00:00)

SL-4 R/B - Pass Details

Date: 03 March 2021
Orbit: 428 x 663 km, 51.6° (Epoch: 13 April)

Event Time Altitude Azimuth Distance (km) Brightness Sun altitude
Rises 19:49:25 0° 284° (WNW) 2,470 7.0 -20.7°
Reaches altitude 10° 19:51:37 10° 280° (W) 1,569 5.5 -21.0°
Enters shadow 19:54:49 51° 219° (SW) 553 2.1 -21.5°
